Location: Rovigo
(45.0670°N, 11.7830°E)
Time: 12:54:31
(UTC+02:00)

ISS - Visible Passes

Search period start: 11 May 2021 00:00
Search period end: 21 May 2021 00:00
Orbit: 417 x 422 km, 51.6° (Epoch: 11 May)

Date Brightness Start Highest point End Pass type
(mag) Time Alt. Az. Time Alt. Az. Time Alt. Az.
11 May -1.7 02:04:21 29° N 02:04:21 29° N 02:06:54 10° NE visible
11 May -1.6 03:38:19 10° NW 03:41:18 28° N 03:44:16 10° ENE visible
12 May -1.2 01:18:16 19° NE 01:18:16 19° NE 01:19:28 10° NE visible
12 May -1.5 02:51:12 12° NW 02:53:42 26° N 02:56:36 10° ENE visible
12 May -2.8 04:27:43 10° NW 04:31:01 51° NNE 04:34:19 10° E visible
13 May -1.5 02:05:02 22° NNW 02:06:06 26° N 02:09:00 10° ENE visible
13 May -2.3 03:40:18 10° NW 03:43:30 38° NNE 03:46:42 10° E visible
14 May -1.6 01:18:38 27° N 01:18:38 27° N 01:21:27 10° NE visible
14 May -1.9 02:52:52 10° NW 02:55:57 31° NNE 02:59:01 10° ENE visible
14 May -3.9 04:29:37 10° WNW 04:33:00 74° SSW 04:36:21 10° SE visible
14 May -1.9 21:16:01 10° SSE 21:17:30 12° SE 21:19:01 10° ESE visible
14 May -3.9 22:50:28 10° SW 22:53:50 82° SSE 22:55:36 26° ENE visible
15 May -1.8 00:27:52 10° WNW 00:30:55 30° NNW 00:33:58 10° NE visible
15 May -1.6 02:05:24 10° NW 02:08:22 28° N 02:11:21 10° ENE visible
15 May -3.6 03:42:11 10° WNW 03:45:34 73° NNE 03:48:56 10° ESE visible
15 May -3.7 22:03:10 10° SW 22:06:26 51° SE 22:09:44 10° ENE visible
15 May -2.2 23:40:12 10° W 23:43:22 36° NNW 23:46:32 10° NE visible
16 May -1.5 01:17:52 10° NW 01:20:47 26° N 01:23:41 10° ENE visible
16 May -2.9 02:54:46 10° NW 02:58:05 51° NNE 03:01:24 10° E visible
16 May -2.9 04:31:48 10° WNW 04:34:46 28° SW 04:37:43 10° SSE visible
16 May -3.0 21:16:04 10° SSW 21:19:06 32° SE 21:22:08 10° ENE visible
16 May -2.7 22:52:34 10° W 22:55:50 47° NNW 22:59:07 10° NE visible
17 May -1.5 00:30:16 10° WNW 00:33:09 26° N 00:36:04 10° ENE visible
17 May -2.3 02:07:21 10° NW 02:10:34 38° NNE 02:13:46 10° E visible
17 May -3.6 03:44:11 10° WNW 03:47:26 46° SW 03:50:41 10° SE visible
17 May -3.4 22:04:59 10° WSW 22:08:20 67° NNW 22:11:42 10° ENE visible
17 May -1.6 23:42:37 10° WNW 23:45:33 27° N 23:48:30 10° NE visible
18 May -1.9 01:19:56 10° NW 01:22:58 31° NNE 01:22:58 31° NNE visible
18 May -3.8 21:17:32 10° SW 21:20:53 82° SSE 21:24:16 10° ENE visible
18 May -1.8 22:54:57 10° WNW 22:57:58 30° NNW 23:01:01 10° NE visible
19 May -1.7 00:32:27 10° NW 00:35:25 28° N 00:36:33 22° NE visible
19 May -0.9 02:09:14 10° WNW 02:09:29 12° WNW 02:09:29 12° WNW visible
19 May -2.1 22:07:15 10° W 22:10:24 36° NNW 22:13:34 10° NE visible
19 May -1.5 23:44:56 10° NW 23:47:50 26° N 23:50:24 12° ENE visible
20 May -1.6 01:21:50 10° NW 01:23:19 23° NW 01:23:19 23° NW visible
20 May -2.6 21:19:36 10° W 21:22:53 47° NNW 21:26:10 10° NE visible
20 May -1.5 22:57:20 10° WNW 23:00:13 25° N 23:03:06 10° ENE visible
